Temperature
6 6 5 5 6 6 6 6 6 8 9 10 10 10 10 10 9 7 7 6 7 8 10 10 10 10 10 9 9 9 9 8 7 7 6 6 5 4 4 3 2 2 1 1
6 6 6 6 6 6 6 7 7 8 9 10 10 10 9 9 8 7 7 6 7 9 10 10 10 10 9 9 8 8 8 7 7 6 5 5 4 3 3 2 1 1 0 0
6 7 6 7 7 7 7 7 8 7 9 10 10 9 8 8 8 8 7 7 8 9 10 10 10 9 9 8 8 7 7 6 6 5 4 3 3 2 2 1 0 0 -0 -0
6 7 8 9 9 9 8 8 8 9 9 10 9 8 7 7 8 8 8 7 8 9 10 10 9 9 8 8 7 6 6 5 4 3 3 2 2 1 1 0 -0 -0 -1 -1
7 8 8 9 9 8 8 8 9 9 9 9 8 8 8 7 9 9 9 8 9 10 10 10 9 9 8 7 6 5 4 4 3 2 2 1 1 0 -0 -0 -1 -1 -1 -1
7 8 9 10 9 9 9 9 9 9 9 8 7 9 8 7 9 9 9 9 9 9 9 9 9 8 7 6 5 4 3 3 2 1 1 1 0 -0 -1 -1 -1 -1 -2 -2
7 7 8 9 8 9 9 10 9 9 9 8 7 8 6 7 9 9 9 9 9 9 8 8 8 7 6 5 4 3 2 2 1 1 0 -0 -1 -1 -1 -1 -2 -2 -2 -3
6 7 8 9 8 8 9 9 8 9 9 8 6 6 6 7 8 8 8 8 8 8 7 7 7 6 5 4 3 2 1 1 0 -0 -0 -1 -1 -1 -2 -2 -2 -3 -3 -3
6 8 8 8 9 9 9 8 7 8 8 9 7 5 5 6 6 7 7 7 7 7 7 6 5 5 4 3 2 1 0 0 -0 -1 -1 -1 -1 -2 -2 -3 -3 -4 -4 -5
6 7 7 9 9 9 9 8 7 8 9 9 8 6 6 6 6 6 7 7 6 6 5 4 3 2 2 2 1 0 -0 -0 -1 -1 -1 -2 -2 -3 -3 -3 -4 -5 -6 -7
7 7 7 9 9 10 10 9 8 7 8 8 8 7 6 6 6 6 6 6 5 5 4 2 1 1 1 0 -0 -0 -1 -1 -1 -2 -2 -2 -3 -3 -4 -4 -5 -7 -7 -8
8 8 8 8 9 10 10 10 9 8 6 7 8 7 7 6 6 5 5 4 4 3 3 1 1 0 -0 -1 -1 -1 -1 -2 -2 -2 -3 -3 -3 -4 -4 -5 -6 -7 -8 -8
10 10 9 9 9 9 10 9 8 8 8 7 7 7 7 6 5 4 4 3 3 2 2 1 -0 -0 -1 -1 -1 -1 -2 -2 -2 -3 -3 -4 -4 -4 -4 -5 -6 -7 -7 -8
10 10 8 8 8 9 9 8 8 7 7 8 7 7 7 6 4 3 2 2 1 1 0 -0 -1 -1 -1 -2 -2 -2 -2 -3 -3 -4 -4 -5 -5 -5 -6 -6 -6 -7 -7 -8
8 9 10 9 8 8 8 8 7 7 7 7 7 6 6 5 3 2 1 1 0 -0 -1 -1 -1 -1 -2 -2 -2 -2 -3 -3 -4 -5 -5 -5 -6 -6 -7 -7 -8 -8 -9 -9
7 8 8 8 7 7 7 7 8 7 7 6 6 5 4 3 2 1 0 0 0 -0 -1 -1 -2 -2 -2 -3 -3 -3 -4 -4 -5 -5 -6 -6 -6 -7 -7 -8 -9 -9 -9 -9
7 5 5 5 6 6 7 8 8 7 7 6 5 4 4 3 2 1 0 -1 -1 -1 -2 -2 -2 -3 -3 -3 -4 -4 -5 -5 -5 -6 -6 -6 -7 -7 -8 -9 -9 -10 -10 -10
9 10 11 10 9 7 7 7 8 7 6 6 5 4 4 3 3 1 -0 -1 -1 -2 -2 -3 -3 -3 -4 -4 -5 -5 -5 -6 -6 -6 -6 -7 -8 -8 -9 -10 -10 -10 -10 -10
9 9 8 7 8 8 7 7 7 7 6 6 5 4 3 3 2 1 -0 -1 -2 -2 -3 -3 -4 -4 -4 -5 -5 -6 -6 -6 -6 -7 -7 -8 -8 -9 -10 -10 -10 -11 -11 -11
8 8 7 6 6 7 7 7 7 6 5 5 4 3 2 1 0 -0 -1 -2 -3 -3 -3 -4 -4 -5 -5 -5 -6 -6 -6 -6 -7 -7 -8 -9 -9 -10 -10 -11 -11 -11 -11 -11
7 7 6 5 6 6 7 7 6 5 4 4 4 3 1 0 -1 -1 -2 -2 -3 -4 -4 -5 -5 -5 -6 -6 -6 -6 -7 -7 -8 -8 -9 -9 -10 -10 -11 -11 -11 -11 -11 -11
6 5 5 5 5 6 6 6 5 5 4 3 2 2 1 -0 -1 -2 -3 -3 -4 -4 -5 -5 -5 -6 -6 -6 -6 -7 -7 -8 -8 -9 -10 -10 -11 -11 -11 -11 -11 -11 -11 -11
4 4 4 4 5 5 5 4 4 4 3 2 1 1 0 -1 -2 -2 -3 -4 -4 -5 -5 -6 -6 -6 -6 -7 -7 -7 -8 -9 -9 -10 -10 -11 -11 -11 -11 -11 -11 -11 -11 -11
3 3 3 4 5 5 4 3 2 2 1 0 -0 -1 -1 -2 -3 -4 -4 -4 -5 -5 -6 -6 -6 -6 -7 -7 -8 -8 -9 -10 -10 -10 -11 -11 -11 -11 -11 -11 -11 -11 -11 -11
3 3 4 4 4 4 3 2 1 0 -0 -1 -2 -2 -3 -3 -3 -4 -4 -5 -5 -6 -6 -6 -6 -7 -7 -8 -9 -9 -10 -10 -10 -11 -11 -11 -11 -11 -11 -11 -11 -11 -11 -11
2 2 3 4 4 4 2 1 1 -0 -1 -2 -3 -3 -4 -4 -4 -5 -5 -6 -6 -6 -6 -7 -7 -8 -8 -9 -9 -10 -10 -10 -10 -11 -11 -11 -11 -11 -11 -11 -11 -11 -11 -11
1 2 3 3 3 2 1 1 0 -0 -1 -1 -2 -3 -4 -5 -5 -5 -6 -6 -6 -6 -7 -7 -8 -8 -9 -9 -10 -10 -10 -10 -11 -11 -11 -11 -11 -12 -12 -11 -11 -11 -11 -11
Wind_Speed
19 19 14 14 15 19 22 20 14 14 17 19 13 14 15 7 6 10 12 14 14 13 12 13 13 13 13 14 13 14 14 13 11 9 9 9 8 8 7 7 6 4 4 4
14 18 19 21 20 21 23 22 22 17 18 11 9 9 9 6 10 13 13 14 13 14 14 15 15 14 14 13 12 12 13 12 10 10 9 8 8 7 7 6 5 4 4 5
8 9 8 12 17 23 20 18 17 21 20 9 10 9 4 5 9 12 13 13 15 15 14 14 15 16 15 13 12 12 12 11 10 9 9 8 8 7 6 4 3 4 4 5
6 7 5 6 5 11 16 17 17 15 10 8 9 4 3 3 5 9 12 14 13 14 13 13 12 13 13 13 13 13 12 10 9 9 9 7 7 6 4 3 3 3 4 5
4 6 6 6 2 6 8 8 15 17 14 7 1 3 1 2 0 7 10 12 13 13 14 14 15 15 16 13 12 12 11 10 9 9 8 7 7 5 3 3 3 3 4 6
4 5 5 5 3 4 4 5 10 17 15 8 4 3 2 5 6 8 11 13 14 14 15 14 13 15 16 14 13 11 10 9 8 8 8 7 6 4 2 2 2 4 5 6
5 4 6 6 0 6 3 5 4 10 11 9 6 2 4 6 8 10 13 14 15 15 14 13 13 15 16 14 11 10 11 10 9 8 8 7 5 3 2 3 4 5 6 6
4 4 5 3 4 6 6 4 3 4 7 9 9 9 8 10 11 12 14 14 15 15 13 11 12 16 16 12 10 11 11 10 9 7 6 5 5 3 3 4 5 5 5 7
7 7 5 3 4 5 3 3 1 4 7 13 11 9 10 10 11 11 13 13 13 16 15 11 9 14 16 10 11 12 11 9 8 7 6 5 4 4 3 3 3 5 5 6
5 7 6 5 3 3 4 2 3 7 10 10 12 13 13 12 11 11 12 12 13 16 15 11 10 12 13 11 11 12 10 8 6 6 5 4 3 3 2 3 4 5 5 6
6 7 6 5 1 3 5 8 11 11 10 13 18 16 14 13 12 12 12 11 11 14 14 13 12 12 10 10 11 11 9 7 6 5 4 3 3 2 3 3 5 6 4 5
6 6 5 3 4 6 7 7 11 15 13 10 13 15 14 12 11 12 12 12 13 14 14 12 12 10 8 8 9 9 7 5 4 3 3 3 3 4 6 7 11 12 12 12
4 1 2 4 6 6 7 8 9 11 13 13 11 13 15 13 10 11 11 12 13 13 12 11 11 9 7 7 8 8 7 5 4 3 3 3 3 4 5 7 9 11 13 16
5 5 4 4 5 7 10 11 12 12 12 13 12 13 14 13 12 12 11 10 12 12 11 10 10 8 6 7 8 8 7 6 4 2 2 2 3 4 4 6 8 7 11 16
5 4 6 8 10 11 11 13 15 14 13 12 11 12 13 14 12 10 10 11 12 11 10 9 9 7 5 7 7 7 5 3 3 2 2 3 3 4 4 5 7 7 7 10
6 7 10 12 13 12 13 14 15 13 12 12 12 12 12 13 12 11 9 10 11 10 8 8 8 6 6 7 7 5 4 4 3 2 2 3 4 4 4 5 6 7 8 9
10 10 9 11 13 12 10 11 14 14 13 14 13 14 14 14 13 10 8 8 9 8 7 8 7 6 6 7 6 4 3 3 4 3 3 3 4 4 5 6 6 7 7 11
6 8 11 16 17 15 12 12 13 14 13 13 15 14 14 13 12 10 9 10 10 9 7 7 7 7 6 6 4 3 2 2 2 3 3 4 4 4 5 6 7 8 8 10
6 9 11 12 12 14 14 14 14 13 14 14 14 13 11 11 11 11 9 10 10 8 5 6 9 7 6 4 4 2 2 2 2 3 3 6 6 5 6 6 7 7 9 9
8 11 13 13 12 14 16 15 15 14 13 13 15 14 13 11 10 10 9 8 5 5 6 7 7 6 4 4 4 2 2 2 3 3 4 4 5 5 6 7 7 8 8 9
11 13 15 15 14 12 14 15 16 15 12 12 13 14 12 10 9 9 9 7 4 5 7 8 5 3 3 3 3 2 2 3 3 4 4 5 5 6 6 6 8 9 9 10
11 13 15 15 16 14 11 12 14 15 14 13 13 13 13 11 10 9 7 5 5 8 6 4 2 3 5 4 2 2 2 3 4 4 5 5 5 6 6 7 9 9 9 9
11 13 14 15 16 16 13 12 13 13 13 13 13 12 11 9 7 7 6 4 5 8 5 3 4 6 5 3 2 2 3 4 5 5 5 5 6 6 7 8 8 8 8 9
13 14 14 15 16 17 15 12 12 12 13 12 11 11 11 9 6 5 5 9 10 9 5 5 6 6 4 2 2 3 4 5 5 6 5 5 6 6 6 7 8 8 8 9
13 15 15 16 15 13 14 14 14 13 13 11 11 9 6 5 6 6 6 7 9 8 5 5 5 5 3 3 3 4 5 5 6 5 4 5 6 6 7 7 7 8 9 9
12 12 10 10 11 12 12 11 10 9 11 10 8 7 7 8 9 7 6 7 7 7 4 3 4 4 4 4 5 5 5 6 7 6 6 7 7 7 7 8 9 9 9 9
11 11 12 12 10 9 10 10 11 10 10 11 9 7 7 8 7 7 6 5 4 3 3 3 3 4 4 5 5 5 5 5 5 6 6 6 6 7 8 9 8 9 9 10
Wind_Direction
252 253 248 240 229 218 219 226 236 250 258 269 283 292 297 284 176 151 149 148 147 144 139 132 129 129 129 128 128 127 123 122 121 120 118 116 110 105 97 89 82 70 51 22
267 259 251 249 239 229 227 229 237 255 265 264 267 275 281 248 183 169 164 159 151 147 144 141 140 138 134 132 129 126 125 124 125 123 117 113 109 104 94 83 70 52 33 9
277 282 262 252 236 225 224 223 224 236 246 262 281 287 283 246 195 178 169 162 158 156 152 148 146 143 139 134 126 122 123 125 126 121 115 112 109 99 89 80 59 38 14 352
287 292 267 273 282 200 209 220 216 230 244 243 264 274 222 252 203 169 162 159 153 147 141 138 135 132 126 126 124 123 123 123 122 117 113 109 101 93 85 68 45 20 345 332
289 300 298 305 297 164 177 224 212 222 235 239 243 287 227 16 358 155 151 146 142 138 138 137 136 133 127 122 120 121 123 122 120 118 115 109 101 92 77 56 27 344 328 334
296 310 322 323 324 134 130 277 212 206 219 201 163 275 312 24 48 94 112 123 126 127 129 130 132 131 125 124 123 124 123 117 113 113 113 111 107 95 73 55 357 340 335 328
246 275 282 293 40 117 161 274 296 196 193 168 174 174 77 64 67 87 102 112 119 122 125 129 130 125 121 122 121 119 113 108 104 106 111 113 105 96 74 36 6 350 329 319
199 242 279 334 124 185 240 305 348 141 140 126 112 99 91 86 88 95 102 107 113 114 111 112 120 120 117 114 114 111 109 106 105 105 108 108 102 84 57 28 1 338 323 317
203 224 259 277 246 276 292 291 1 116 124 127 122 115 109 100 99 100 105 107 110 113 108 99 103 117 117 115 115 112 109 109 109 101 91 89 81 60 35 9 345 322 313 309
264 270 271 271 280 344 6 25 86 113 123 125 123 125 119 114 110 106 104 107 112 110 107 96 89 100 113 119 117 115 114 114 112 104 90 68 51 31 13 341 321 309 306 312
262 274 290 286 224 87 74 85 91 88 96 121 125 125 122 117 112 109 105 100 101 106 107 104 103 103 110 117 118 115 113 113 106 96 88 55 24 354 330 287 284 310 304 308
228 239 211 263 130 126 121 114 116 113 104 105 120 123 118 112 110 109 105 103 103 105 109 110 108 106 108 116 120 121 118 112 103 92 70 45 8 336 325 321 324 328 329 327
219 123 128 102 109 114 116 118 115 115 122 118 112 118 117 112 107 106 106 109 112 115 116 114 110 107 110 115 114 113 114 110 94 74 50 16 349 331 323 324 325 330 334 334
164 133 133 156 141 121 117 111 102 98 102 109 113 111 109 108 108 108 110 113 117 117 116 115 111 107 109 108 102 98 93 86 83 64 22 341 320 309 306 315 323 324 330 332
178 179 152 130 116 117 120 119 114 110 108 102 103 108 112 115 114 111 113 117 116 114 114 115 111 106 102 99 95 90 83 72 68 37 349 319 306 302 304 308 312 313 316 324
114 102 121 131 136 136 135 134 129 125 118 113 108 106 107 110 112 113 117 125 125 126 126 118 110 107 99 93 90 82 64 49 53 14 330 314 309 309 313 314 315 316 319 323
138 144 148 151 153 151 148 143 137 132 124 121 120 119 116 113 111 108 103 100 105 110 112 111 108 99 91 93 94 86 62 18 4 353 322 313 310 310 314 315 314 316 315 318
185 172 170 165 159 151 136 126 125 124 123 127 127 123 122 122 121 117 109 102 94 84 80 93 99 94 93 100 98 88 55 352 327 315 314 314 313 318 316 312 313 313 313 316
140 139 137 137 139 136 130 125 121 119 124 128 123 117 112 112 115 116 112 108 107 102 93 103 109 99 92 100 104 70 36 346 333 331 326 325 326 317 314 310 309 310 314 318
116 119 121 117 117 125 125 123 121 121 124 123 118 114 110 109 114 113 102 88 81 110 118 110 103 99 92 83 95 63 24 353 338 328 318 312 313 312 312 312 313 312 314 315
120 121 121 119 112 111 121 126 126 125 122 119 120 119 117 112 109 108 106 96 79 105 110 112 106 110 115 101 79 56 18 350 334 319 311 308 309 306 303 304 311 315 315 314
121 123 121 120 118 113 110 116 120 120 115 110 111 116 117 112 103 90 83 107 121 116 102 100 111 131 122 96 66 27 354 334 318 307 301 299 300 302 305 311 313 311 309 308
121 122 122 122 121 116 107 106 111 114 116 119 123 123 119 116 113 116 112 109 109 113 106 104 112 108 93 72 34 355 333 317 306 298 294 294 298 304 306 306 304 305 306 307
122 120 120 121 120 115 109 103 100 102 104 103 108 116 118 111 86 75 111 125 120 106 85 84 82 79 62 40 354 328 311 300 293 289 290 299 304 300 297 299 301 303 303 302
121 123 127 127 121 117 117 113 106 103 100 98 93 87 84 96 113 110 99 103 109 98 68 54 51 43 31 348 325 308 298 290 290 296 302 300 295 295 296 296 297 300 301 300
126 125 120 114 121 127 128 123 118 117 115 110 99 90 93 95 99 97 91 89 94 95 81 46 16 6 345 324 308 298 291 296 306 309 298 296 294 295 296 297 297 297 296 294
112 114 112 108 108 113 118 119 122 123 124 124 116 108 105 102 98 95 93 88 82 73 50 17 356 337 320 308 299 293 291 293 297 299 297 291 289 289 292 292 294 295 294 293
Height
1410 1407 1407 1404 1404 1405 1406 1402 1402 1390 1387 1381 1384 1384 1381 1378 1376 1376 1377 1380 1384 1389 1396 1404 1412 1420 1427 1432 1438 1444 1450 1454 1459 1462 1465 1467 1468 1469 1469 1469 1468 1467 1466 1465
1401 1397 1396 1394 1392 1394 1394 1394 1392 1389 1383 1378 1380 1381 1378 1375 1374 1375 1378 1381 1385 1391 1398 1405 1413 1420 1426 1432 1438 1444 1449 1453 1457 1460 1463 1464 1466 1466 1466 1466 1465 1464 1463 1461
1394 1388 1387 1381 1374 1377 1380 1381 1385 1385 1376 1375 1377 1377 1377 1375 1373 1374 1378 1382 1386 1392 1399 1406 1413 1420 1427 1433 1438 1444 1448 1452 1455 1458 1460 1462 1463 1463 1463 1463 1462 1461 1459 1457
1395 1386 1375 1367 1361 1362 1369 1372 1375 1373 1371 1373 1374 1374 1374 1373 1373 1375 1378 1383 1388 1394 1401 1408 1415 1422 1428 1434 1438 1443 1447 1451 1454 1456 1458 1460 1461 1461 1461 1460 1459 1458 1456 1453
1393 1380 1372 1364 1361 1362 1366 1367 1365 1367 1368 1371 1373 1373 1372 1371 1372 1375 1379 1383 1388 1395 1401 1409 1416 1422 1428 1433 1438 1442 1446 1450 1453 1455 1457 1458 1459 1459 1458 1458 1456 1454 1452 1448
1395 1385 1375 1367 1361 1360 1365 1364 1356 1359 1363 1368 1372 1373 1371 1371 1372 1375 1380 1385 1390 1396 1404 1410 1417 1423 1428 1433 1438 1442 1446 1449 1452 1454 1455 1456 1457 1456 1456 1454 1453 1451 1448 1444
1396 1389 1379 1368 1363 1365 1370 1362 1354 1354 1358 1365 1369 1372 1373 1373 1374 1378 1382 1387 1392 1398 1405 1412 1418 1424 1429 1434 1438 1442 1446 1448 1451 1453 1454 1455 1454 1454 1453 1451 1449 1447 1444 1441
1393 1390 1381 1366 1366 1368 1362 1356 1355 1354 1357 1363 1368 1371 1373 1375 1377 1381 1385 1390 1395 1400 1407 1414 1421 1426 1430 1435 1439 1442 1445 1448 1450 1452 1452 1452 1452 1451 1450 1448 1445 1442 1439 1437
1384 1379 1369 1366 1365 1363 1360 1357 1356 1355 1358 1362 1367 1372 1375 1378 1382 1386 1390 1394 1400 1405 1411 1418 1424 1429 1432 1435 1439 1443 1446 1448 1449 1450 1451 1451 1450 1449 1447 1444 1442 1438 1435 1431
1377 1370 1366 1364 1363 1361 1359 1357 1356 1357 1360 1363 1367 1373 1378 1382 1387 1391 1395 1400 1405 1410 1415 1420 1426 1431 1434 1437 1441 1444 1446 1447 1448 1449 1449 1449 1448 1446 1444 1441 1438 1435 1431 1426
1374 1367 1363 1360 1361 1361 1361 1360 1360 1362 1365 1368 1371 1377 1383 1387 1392 1396 1401 1406 1411 1415 1418 1423 1428 1432 1436 1439 1442 1444 1445 1446 1447 1447 1447 1446 1445 1443 1441 1438 1435 1432 1427 1423
1369 1363 1363 1361 1361 1362 1363 1363 1365 1366 1370 1375 1379 1382 1388 1393 1398 1402 1406 1411 1415 1419 1422 1426 1430 1434 1437 1440 1442 1443 1444 1445 1446 1446 1445 1444 1443 1441 1438 1436 1433 1429 1425 1422
1361 1360 1361 1361 1361 1363 1365 1367 1369 1371 1374 1379 1385 1389 1393 1398 1403 1407 1412 1416 1419 1422 1426 1429 1432 1435 1438 1440 1442 1443 1444 1444 1444 1444 1443 1442 1440 1438 1435 1433 1431 1427 1423 1418
1359 1360 1360 1361 1362 1365 1367 1369 1372 1376 1381 1385 1390 1394 1398 1402 1407 1412 1415 1419 1422 1425 1428 1432 1434 1437 1439 1440 1442 1443 1443 1443 1443 1442 1441 1440 1437 1435 1432 1428 1425 1422 1419 1415
1356 1358 1359 1360 1362 1365 1368 1372 1375 1379 1384 1390 1394 1398 1402 1406 1410 1414 1418 1422 1425 1428 1431 1433 1436 1438 1439 1441 1442 1443 1443 1443 1442 1441 1439 1437 1435 1432 1430 1426 1422 1418 1414 1410
1353 1355 1357 1358 1361 1365 1369 1374 1377 1382 1387 1392 1397 1401 1406 1409 1413 1416 1420 1424 1427 1429 1432 1435 1437 1439 1441 1442 1442 1442 1442 1442 1441 1439 1437 1435 1433 1430 1427 1423 1419 1415 1410 1406
1350 1353 1355 1358 1361 1365 1370 1375 1379 1384 1390 1394 1399 1403 1407 1411 1414 1418 1422 1426 1429 1432 1435 1437 1439 1440 1441 1442 1442 1442 1441 1440 1439 1437 1435 1433 1430 1427 1423 1419 1415 1411 1408 1404
1349 1350 1352 1353 1358 1364 1371 1377 1382 1387 1391 1396 1401 1405 1409 1412 1416 1419 1423 1427 1430 1433 1436 1438 1440 1441 1441 1442 1442 1441 1440 1439 1437 1435 1433 1430 1427 1423 1420 1416 1412 1408 1404 1400
1348 1350 1352 1356 1361 1366 1372 1378 1384 1389 1394 1399 1403 1407 1411 1415 1419 1422 1426 1429 1432 1435 1437 1439 1440 1441 1441 1441 1441 1439 1438 1437 1435 1432 1430 1426 1423 1420 1416 1412 1408 1404 1400 1395
1348 1350 1353 1357 1363 1369 1375 1381 1386 1392 1397 1401 1405 1409 1413 1417 1421 1424 1428 1431 1434 1436 1438 1439 1440 1441 1441 1440 1439 1438 1436 1434 1432 1429 1426 1422 1419 1416 1412 1408 1404 1400 1395 1391
1348 1351 1354 1359 1365 1372 1378 1384 1389 1394 1399 1404 1407 1411 1415 1419 1423 1427 1429 1432 1435 1436 1438 1439 1439 1440 1439 1438 1437 1435 1433 1431 1428 1425 1422 1418 1415 1411 1407 1404 1399 1395 1391 1387
1349 1353 1357 1362 1367 1374 1381 1387 1392 1396 1401 1406 1410 1414 1417 1421 1424 1428 1431 1433 1435 1436 1438 1438 1438 1438 1437 1436 1434 1432 1430 1427 1424 1421 1417 1414 1410 1406 1403 1399 1395 1391 1387 1383
1351 1355 1359 1365 1370 1376 1383 1390 1395 1399 1403 1407 1412 1416 1419 1422 1426 1428 1431 1433 1434 1436 1437 1437 1437 1436 1435 1433 1431 1429 1426 1423 1420 1417 1413 1410 1406 1402 1398 1395 1391 1387 1383 1379
1353 1357 1362 1368 1374 1380 1385 1392 1397 1401 1406 1410 1414 1418 1421 1423 1426 1429 1431 1433 1434 1435 1436 1436 1435 1434 1432 1430 1428 1425 1422 1419 1415 1412 1409 1405 1402 1398 1394 1391 1387 1383 1379 1375
1355 1359 1365 1371 1376 1382 1387 1393 1398 1403 1407 1411 1415 1419 1422 1425 1427 1429 1431 1433 1434 1434 1434 1434 1433 1431 1429 1427 1424 1421 1418 1414 1411 1407 1404 1401 1397 1394 1390 1387 1383 1380 1376 1372
1357 1362 1368 1374 1379 1384 1389 1394 1398 1403 1407 1411 1415 1419 1422 1425 1427 1429 1431 1432 1433 1433 1433 1432 1431 1428 1426 1423 1420 1417 1413 1410 1407 1403 1400 1396 1393 1389 1386 1383 1380 1377 1373 1370
1360 1365 1370 1377 1382 1387 1391 1396 1400 1405 1409 1413 1416 1420 1423 1425 1428 1429 1431 1432 1432 1432 1431 1430 1428 1425 1422 1419 1416 1413 1409 1406 1402 1399 1395 1392 1389 1385 1382 1379 1376 1373 1370 1367